status,avgMeasuredTime,avgSpeed,extID,medianMeasuredTime,TIMESTAMP,vehicleCount,_id,REPORT_ID
OK,93,34,956,93,2014-08-01T08:00:00,2,20747011,187430
OK,138,23,956,138,2014-08-01T08:10:00,6,20747833,187430
OK,139,23,956,139,2014-08-01T08:15:00,7,20748282,187430
OK,113,28,956,113,2014-08-01T08:20:00,6,20748731,187430
OK,97,33,956,97,2014-08-01T08:25:00,8,20749180,187430
OK,98,33,956,98,2014-08-01T08:30:00,6,20749629,187430
OK,100,32,956,100,2014-08-01T08:35:00,7,20750078,187430
OK,114,28,956,114,2014-08-01T08:40:00,11,20750527,187430
OK,129,25,956,129,2014-08-01T08:45:00,18,20750976,187430
OK,157,20,956,157,2014-08-01T08:50:00,15,20751425,187430
OK,140,23,956,140,2014-08-01T08:55:00,10,20751874,187430
OK,124,26,956,124,2014-08-01T09:00:00,12,20752323,187430
OK,109,29,956,109,2014-08-01T09:05:00,14,20752772,187430
OK,115,28,956,115,2014-08-01T09:10:00,12,20753221,187430
OK,118,27,956,118,2014-08-01T09:20:00,14,20754119,187430
OK,118,27,956,118,2014-08-01T09:25:00,5,20754568,187430
OK,116,27,956,116,2014-08-01T09:30:00,8,20755017,187430
OK,111,29,956,111,2014-08-01T09:35:00,12,20755466,187430
OK,107,30,956,107,2014-08-01T09:40:00,13,20755915,187430
OK,108,30,956,108,2014-08-01T09:45:00,15,20756364,187430
OK,108,30,956,108,2014-08-01T09:50:00,18,20756813,187430
OK,112,28,956,112,2014-08-01T09:55:00,15,20757262,187430
OK,126,25,956,126,2014-08-01T10:00:00,11,20757711,187430
OK,119,27,956,119,2014-08-01T10:05:00,12,20758160,187430
OK,121,26,956,121,2014-08-01T10:15:00,9,20759058,187430
OK,129,25,956,129,2014-08-01T10:20:00,8,20759507,187430
OK,123,26,956,123,2014-08-01T10:25:00,14,20759956,187430
OK,102,31,956,102,2014-08-01T10:30:00,13,20760405,187430
OK,91,35,956,91,2014-08-01T10:35:00,9,20760854,187430
OK,103,31,956,103,2014-08-01T10:40:00,9,20761303,187430
OK,135,24,956,135,2014-08-01T10:45:00,7,20761752,187430
OK,123,26,956,123,2014-08-01T10:50:00,7,20762201,187430
OK,135,24,956,135,2014-08-01T10:55:00,9,20762650,187430
OK,137,23,956,137,2014-08-01T11:00:00,8,20763099,187430
OK,135,24,956,135,2014-08-01T11:05:00,4,20763548,187430
OK,82,39,956,82,2014-08-01T11:10:00,5,20763997,187430
OK,90,36,956,90,2014-08-01T11:15:00,7,20764445,187430
OK,108,30,956,108,2014-08-01T11:20:00,10,20764894,187430
OK,125,25,956,125,2014-08-01T11:25:00,10,20765343,187430
OK,127,25,956,127,2014-08-01T11:30:00,9,20765792,187430
OK,110,29,956,110,2014-08-01T11:35:00,11,20766241,187430
OK,110,29,956,110,2014-08-01T11:40:00,11,20766690,187430
OK,115,28,956,115,2014-08-01T11:45:00,7,20767139,187430
OK,115,28,956,115,2014-08-01T11:50:00,7,20767588,187430
OK,126,25,956,126,2014-08-01T11:55:00,5,20768037,187430
OK,110,29,956,110,2014-08-01T12:00:00,7,20768486,187430
OK,90,36,956,90,2014-08-01T12:10:00,6,20769384,187430
OK,95,34,956,95,2014-08-01T12:15:00,6,20769833,187430
OK,109,29,956,109,2014-08-01T12:20:00,8,20770282,187430
OK,108,30,956,108,2014-08-01T12:25:00,12,20770731,187430
OK,116,27,956,116,2014-08-01T12:30:00,13,20771180,187430
OK,115,28,956,115,2014-08-01T12:35:00,12,20771629,187430
OK,105,30,956,105,2014-08-01T12:40:00,13,20772078,187430
OK,103,31,956,103,2014-08-01T12:45:00,10,20772527,187430
OK,129,25,956,129,2014-08-01T12:50:00,17,20772976,187430
OK,134,24,956,134,2014-08-01T12:55:00,17,20773425,187430
OK,128,25,956,128,2014-08-01T13:00:00,14,20773874,187430
OK,123,26,956,123,2014-08-01T13:05:00,13,20774323,187430
OK,116,27,956,116,2014-08-01T13:10:00,4,20774772,187430
OK,149,21,956,149,2014-08-01T13:15:00,6,20775221,187430
OK,117,27,956,117,2014-08-01T13:20:00,16,20775670,187430
OK,117,27,956,117,2014-08-01T13:25:00,14,20776119,187430
OK,133,24,956,133,2014-08-01T13:30:00,7,20776568,187430
OK,132,24,956,132,2014-08-01T13:35:00,8,20777017,187430
OK,146,22,956,146,2014-08-01T13:40:00,5,20777466,187430
OK,160,20,956,160,2014-08-01T13:45:00,4,20777915,187430
OK,134,24,956,134,2014-08-01T13:50:00,2,20778364,187430
OK,111,29,956,111,2014-08-01T14:00:00,10,20779262,187430
OK,128,25,956,128,2014-08-01T14:05:00,8,20779711,187430
OK,133,24,956,133,2014-08-01T14:10:00,10,20780160,187430
OK,123,26,956,123,2014-08-01T14:15:00,9,20780609,187430
OK,124,26,956,124,2014-08-01T14:20:00,13,20781058,187430
OK,136,23,956,136,2014-08-01T14:25:00,13,20781507,187430
OK,123,26,956,123,2014-08-01T14:30:00,8,20781956,187430
OK,93,34,956,93,2014-08-01T14:35:00,7,20782405,187430
OK,102,31,956,102,2014-08-01T14:40:00,6,20782854,187430
OK,137,23,956,137,2014-08-01T14:45:00,5,20783303,187430
OK,137,23,956,137,2014-08-01T14:50:00,5,20783752,187430
OK,122,26,956,122,2014-08-01T15:00:00,9,20784650,187430
OK,115,28,956,115,2014-08-01T15:05:00,8,20785099,187430
OK,112,28,956,112,2014-08-01T15:10:00,6,20785548,187430
OK,91,35,956,91,2014-08-01T15:15:00,9,20785997,187430
OK,95,34,956,95,2014-08-01T15:20:00,10,20786446,187430
OK,115,28,956,115,2014-08-01T15:25:00,6,20786895,187430
OK,116,27,956,116,2014-08-01T15:30:00,7,20787344,187430
OK,120,27,956,120,2014-08-01T15:35:00,5,20787793,187430
OK,120,27,956,120,2014-08-01T15:40:00,3,20788242,187430
OK,115,28,956,115,2014-08-01T15:45:00,3,20788691,187430
OK,118,27,956,118,2014-08-01T15:50:00,4,20789140,187430
OK,122,26,956,122,2014-08-01T15:55:00,4,20789589,187430
OK,86,37,956,86,2014-08-01T16:00:00,3,20790038,187430
OK,83,39,956,83,2014-08-01T16:05:00,3,20790487,187430
OK,100,32,956,100,2014-08-01T16:10:00,8,20790936,187430
OK,109,29,956,109,2014-08-01T16:15:00,4,20791385,187430
OK,97,33,956,97,2014-08-01T16:20:00,2,20791834,187430
OK,94,34,956,94,2014-08-01T16:25:00,3,20792283,187430
OK,117,27,956,117,2014-08-01T16:30:00,2,20792732,187430
OK,117,27,956,117,2014-08-01T16:35:00,3,20793181,187430
OK,112,28,956,112,2014-08-01T16:40:00,1,20793630,187430
OK,113,28,956,113,2014-08-01T16:45:00,6,20794079,187430
OK,105,30,956,105,2014-08-01T16:50:00,6,20794528,187430
OK,137,23,956,137,2014-08-01T16:55:00,4,20794977,187430
OK,229,14,956,229,2014-08-01T17:00:00,1,20795426,187430
OK,229,14,956,229,2014-08-01T17:05:00,1,20795875,187430
OK,126,25,956,126,2014-08-01T17:10:00,1,20796324,187430
OK,112,28,956,112,2014-08-01T17:15:00,2,20796773,187430
OK,115,28,956,115,2014-08-01T17:20:00,3,20797222,187430
OK,115,28,956,115,2014-08-01T17:25:00,3,20797671,187430
OK,96,33,956,96,2014-08-01T17:30:00,2,20798120,187430
OK,89,36,956,89,2014-08-01T17:35:00,1,20798569,187430
OK,119,27,956,119,2014-08-01T17:40:00,2,20799018,187430
OK,119,27,956,119,2014-08-01T17:45:00,2,20799467,187430
OK,157,20,956,157,2014-08-01T17:50:00,2,20799916,187430
OK,157,20,956,157,2014-08-01T17:55:00,2,20800365,187430
OK,111,29,956,111,2014-08-01T18:00:00,2,20800814,187430
OK,93,34,956,93,2014-08-01T18:05:00,2,20801263,187430
OK,101,32,956,101,2014-08-01T18:10:00,2,20801712,187430
OK,100,32,956,100,2014-08-01T18:15:00,3,20802161,187430
OK,77,42,956,77,2014-08-01T18:20:00,1,20802610,187430
OK,77,42,956,77,2014-08-01T18:25:00,0,20803059,187430
OK,112,28,956,112,2014-08-01T18:30:00,1,20803508,187430
OK,85,38,956,85,2014-08-01T18:35:00,3,20803957,187430
OK,85,38,956,85,2014-08-01T18:40:00,3,20804406,187430
OK,68,47,956,68,2014-08-01T18:45:00,2,20804855,187430
OK,83,39,956,83,2014-08-01T18:50:00,3,20805304,187430
OK,83,39,956,83,2014-08-01T18:55:00,3,20805753,187430
OK,87,37,956,87,2014-08-01T19:00:00,3,20806202,187430
OK,133,24,956,133,2014-08-01T19:05:00,1,20806651,187430
OK,133,24,956,133,2014-08-01T19:10:00,0,20807100,187430
OK,133,24,956,133,2014-08-01T19:15:00,0,20807549,187430
OK,133,24,956,133,2014-08-01T19:20:00,0,20807998,187430
OK,98,33,956,98,2014-08-01T19:25:00,1,20808447,187430
OK,90,36,956,90,2014-08-01T19:30:00,2,20808896,187430
OK,82,39,956,82,2014-08-01T19:35:00,1,20809345,187430
OK,82,39,956,82,2014-08-01T19:40:00,0,20809794,187430
OK,82,39,956,82,2014-08-01T19:45:00,0,20810243,187430
OK,82,39,956,82,2014-08-01T19:50:00,0,20810692,187430
OK,95,34,956,95,2014-08-01T19:55:00,1,20811141,187430
OK,95,34,956,95,2014-08-01T22:00:00,0,20816870,187430
OK,82,39,956,82,2014-08-02T00:00:00,0,20823309,187430
OK,82,39,956,82,2014-08-02T00:05:00,0,20823758,187430
OK,82,39,956,82,2014-08-02T00:10:00,0,20824207,187430
OK,82,39,956,82,2014-08-02T00:15:00,0,20824656,187430
OK,87,37,956,87,2014-08-02T00:20:00,1,20825105,187430
OK,87,37,956,87,2014-08-02T00:25:00,0,20825554,187430
OK,87,37,956,87,2014-08-02T00:30:00,0,20826003,187430
OK,87,37,956,87,2014-08-02T00:35:00,0,20826452,187430
OK,87,37,956,87,2014-08-02T00:40:00,0,20826901,187430
OK,87,37,956,87,2014-08-02T00:45:00,0,20827350,187430
OK,74,43,956,74,2014-08-02T00:50:00,1,20827799,187430
OK,74,43,956,74,2014-08-02T00:55:00,1,20828248,187430
OK,74,43,956,74,2014-08-02T01:00:00,0,20828697,187430
OK,74,43,956,74,2014-08-02T01:05:00,0,20829146,187430
OK,90,36,956,90,2014-08-02T01:10:00,1,20829595,187430
OK,95,34,956,95,2014-08-02T01:15:00,1,20830044,187430
OK,95,34,956,95,2014-08-02T01:20:00,0,20830493,187430
OK,52,62,956,52,2014-08-02T01:25:00,0,20830942,187430
OK,52,62,956,52,2014-08-02T01:30:00,0,20831391,187430
OK,52,62,956,52,2014-08-02T01:35:00,0,20831840,187430
OK,52,62,956,52,2014-08-02T01:40:00,0,20832289,187430
OK,52,62,956,52,2014-08-02T01:45:00,0,20832738,187430
OK,90,36,956,90,2014-08-02T01:50:00,1,20833187,187430
OK,90,36,956,90,2014-08-02T01:55:00,1,20833636,187430
OK,90,36,956,90,2014-08-02T02:00:00,0,20834085,187430
OK,90,36,956,90,2014-08-02T02:05:00,0,20834534,187430
OK,90,36,956,90,2014-08-02T02:10:00,0,20834983,187430
OK,90,36,956,90,2014-08-02T02:15:00,0,20835432,187430
OK,90,36,956,90,2014-08-02T02:20:00,0,20835881,187430
OK,90,36,956,90,2014-08-02T02:25:00,0,20836330,187430
OK,90,36,956,90,2014-08-02T02:30:00,0,20836779,187430
OK,90,36,956,90,2014-08-02T02:35:00,0,20837228,187430
OK,90,36,956,90,2014-08-02T02:40:00,0,20837677,187430
OK,154,21,956,154,2014-08-02T02:45:00,1,20838126,187430
OK,154,21,956,154,2014-08-02T02:50:00,1,20838575,187430
OK,154,21,956,154,2014-08-02T02:55:00,0,20839024,187430
OK,154,21,956,154,2014-08-02T03:00:00,0,20839473,187430
OK,154,21,956,154,2014-08-02T03:05:00,0,20839922,187430
OK,154,21,956,154,2014-08-02T03:10:00,0,20840371,187430
OK,154,21,956,154,2014-08-02T03:15:00,0,20840820,187430
OK,154,21,956,154,2014-08-02T03:20:00,0,20841269,187430
OK,82,39,956,82,2014-08-02T03:25:00,1,20841718,187430
OK,82,39,956,82,2014-08-02T03:30:00,0,20842167,187430
OK,82,39,956,82,2014-08-02T03:35:00,0,20842616,187430
OK,82,39,956,82,2014-08-02T03:40:00,0,20843065,187430
OK,82,39,956,82,2014-08-02T03:45:00,0,20843514,187430
OK,83,39,956,83,2014-08-02T03:50:00,1,20843963,187430
OK,83,39,956,83,2014-08-02T03:55:00,0,20844412,187430
OK,86,37,956,86,2014-08-02T06:00:00,0,20851866,187430
OK,86,37,956,86,2014-08-02T06:05:00,0,20852315,187430
OK,86,37,956,86,2014-08-02T06:10:00,0,20852764,187430
OK,99,32,956,99,2014-08-02T06:15:00,2,20853213,187430
OK,63,51,956,63,2014-08-02T06:20:00,1,20853662,187430
OK,63,51,956,63,2014-08-02T06:25:00,1,20854111,187430
OK,96,33,956,96,2014-08-02T06:30:00,3,20854560,187430
OK,96,33,956,96,2014-08-02T06:35:00,3,20855009,187430
OK,57,56,956,57,2014-08-02T06:40:00,0,20855458,187430
OK,94,34,956,94,2014-08-02T06:45:00,1,20855907,187430
OK,94,34,956,94,2014-08-02T06:50:00,4,20856356,187430
OK,99,32,956,99,2014-08-02T06:55:00,6,20856805,187430
OK,104,31,956,104,2014-08-02T07:00:00,2,20857254,187430
OK,74,43,956,74,2014-08-02T07:05:00,1,20857703,187430
OK,78,41,956,78,2014-08-02T07:10:00,2,20858152,187430
OK,90,36,956,90,2014-08-02T07:15:00,1,20858601,187430
OK,90,36,956,90,2014-08-02T07:20:00,3,20859050,187430
OK,54,60,956,54,2014-08-02T07:25:00,1,20859499,187430
OK,54,60,956,54,2014-08-02T07:30:00,0,20859948,187430
OK,122,26,956,122,2014-08-02T07:35:00,4,20860397,187430
OK,118,27,956,118,2014-08-02T07:40:00,2,20860846,187430
OK,151,21,956,151,2014-08-02T07:45:00,0,20861295,187430
OK,143,22,956,143,2014-08-02T07:50:00,2,20861744,187430
OK,110,29,956,110,2014-08-02T07:55:00,2,20862193,187430
OK,146,22,956,146,2014-08-02T08:00:00,3,20862642,187430
OK,128,25,956,128,2014-08-02T08:05:00,3,20863091,187430
OK,106,30,956,106,2014-08-02T08:10:00,2,20863540,187430
OK,99,32,956,99,2014-08-02T08:15:00,2,20863989,187430
OK,105,30,956,105,2014-08-02T08:20:00,4,20864438,187430
OK,102,31,956,102,2014-08-02T08:25:00,5,20864887,187430
OK,132,24,956,132,2014-08-02T08:30:00,6,20865336,187430
OK,140,23,956,140,2014-08-02T08:35:00,5,20865785,187430
OK,103,31,956,103,2014-08-02T08:40:00,2,20866234,187430
OK,116,27,956,116,2014-08-02T08:45:00,2,20866683,187430
OK,132,24,956,132,2014-08-02T08:50:00,2,20867132,187430
OK,101,32,956,101,2014-08-02T08:55:00,5,20867581,187430
OK,105,30,956,105,2014-08-02T09:00:00,4,20868030,187430
OK,96,33,956,96,2014-08-02T09:05:00,2,20868479,187430
OK,98,33,956,98,2014-08-02T09:10:00,8,20868928,187430
OK,99,32,956,99,2014-08-02T09:15:00,7,20869377,187430
OK,75,43,956,75,2014-08-02T09:20:00,3,20869826,187430
OK,138,23,956,138,2014-08-02T09:25:00,7,20870275,187430
OK,129,25,956,129,2014-08-02T09:30:00,9,20870724,187430
OK,113,28,956,113,2014-08-02T09:35:00,5,20871173,187430
OK,114,28,956,114,2014-08-02T09:40:00,3,20871622,187430
OK,109,29,956,109,2014-08-02T09:45:00,13,20872071,187430
OK,85,38,956,85,2014-08-02T09:50:00,13,20872520,187430
OK,81,40,956,81,2014-08-02T09:55:00,5,20872969,187430
OK,112,28,956,112,2014-08-02T10:00:00,7,20873418,187430
OK,124,26,956,124,2014-08-02T10:05:00,9,20873867,187430
OK,138,23,956,138,2014-08-02T10:10:00,4,20874316,187430
OK,106,30,956,106,2014-08-02T10:15:00,3,20874765,187430
OK,110,29,956,110,2014-08-02T10:20:00,4,20875214,187430
OK,139,23,956,139,2014-08-02T10:25:00,2,20875663,187430
OK,111,29,956,111,2014-08-02T10:30:00,1,20876112,187430
OK,98,33,956,98,2014-08-02T10:35:00,5,20876561,187430
OK,74,43,956,74,2014-08-02T10:40:00,5,20877010,187430
OK,93,34,956,93,2014-08-02T10:45:00,10,20877459,187430
OK,95,34,956,95,2014-08-02T10:50:00,7,20877908,187430
OK,125,25,956,125,2014-08-02T10:55:00,0,20878357,187430
OK,102,31,956,102,2014-08-02T11:00:00,2,20878806,187430
OK,102,31,956,102,2014-08-02T11:05:00,2,20879255,187430
OK,100,32,956,100,2014-08-02T11:10:00,1,20879704,187430
OK,125,25,956,125,2014-08-02T11:15:00,4,20880153,187430
OK,120,27,956,120,2014-08-02T11:20:00,9,20880602,187430
OK,109,29,956,109,2014-08-02T11:25:00,8,20881051,187430
OK,109,29,956,109,2014-08-02T11:30:00,4,20881500,187430
OK,127,25,956,127,2014-08-02T11:35:00,1,20881949,187430
OK,110,29,956,110,2014-08-02T11:40:00,4,20882398,187430
OK,113,28,956,113,2014-08-02T11:45:00,7,20882847,187430
OK,120,27,956,120,2014-08-02T11:50:00,5,20883296,187430
OK,95,34,956,95,2014-08-02T11:55:00,2,20883745,187430
OK,118,27,956,118,2014-08-02T12:00:00,3,20884194,187430
OK,107,30,956,107,2014-08-02T12:05:00,7,20884643,187430
OK,102,31,956,102,2014-08-02T12:10:00,7,20885092,187430
OK,117,27,956,117,2014-08-02T12:15:00,6,20885541,187430
OK,114,28,956,114,2014-08-02T12:20:00,5,20885990,187430
OK,112,28,956,112,2014-08-02T12:25:00,3,20886439,187430
OK,103,31,956,103,2014-08-02T12:30:00,3,20886888,187430
OK,103,31,956,103,2014-08-02T12:35:00,5,20887337,187430
OK,118,27,956,118,2014-08-02T12:40:00,8,20887786,187430
OK,117,27,956,117,2014-08-02T12:45:00,6,20888235,187430
OK,119,27,956,119,2014-08-02T12:50:00,2,20888684,187430
OK,105,30,956,105,2014-08-02T12:55:00,3,20889133,187430
OK,105,30,956,105,2014-08-02T13:00:00,7,20889582,187430
OK,130,24,956,130,2014-08-02T13:05:00,8,20890031,187430
OK,114,28,956,114,2014-08-02T13:10:00,6,20890480,187430
OK,112,28,956,112,2014-08-02T13:15:00,5,20890929,187430
OK,104,31,956,104,2014-08-02T13:20:00,5,20891378,187430
OK,100,32,956,100,2014-08-02T13:25:00,4,20891827,187430
OK,125,25,956,125,2014-08-02T13:30:00,3,20892276,187430
OK,83,39,956,83,2014-08-02T13:35:00,6,20892725,187430
OK,83,39,956,83,2014-08-02T13:40:00,4,20893174,187430
OK,103,31,956,103,2014-08-02T13:45:00,2,20893623,187430
OK,117,27,956,117,2014-08-02T13:50:00,3,20894072,187430
OK,104,31,956,104,2014-08-02T13:55:00,2,20894521,187430
OK,59,55,956,59,2014-08-02T14:00:00,4,20894970,187430
OK,102,31,956,102,2014-08-02T14:05:00,6,20895419,187430
OK,110,29,956,110,2014-08-02T14:10:00,5,20895868,187430
OK,108,30,956,108,2014-08-02T14:15:00,5,20896317,187430
OK,108,30,956,108,2014-08-02T14:20:00,3,20896766,187430
OK,67,48,956,67,2014-08-02T14:25:00,2,20897215,187430
OK,101,32,956,101,2014-08-02T14:30:00,3,20897664,187430
OK,97,33,956,97,2014-08-02T14:35:00,5,20898113,187430
OK,106,30,956,106,2014-08-02T14:40:00,5,20898562,187430
OK,132,24,956,132,2014-08-02T14:45:00,5,20899011,187430
OK,132,24,956,132,2014-08-02T14:50:00,6,20899460,187430
OK,132,24,956,132,2014-08-02T14:55:00,5,20899909,187430
OK,114,28,956,114,2014-08-02T15:00:00,4,20900358,187430
OK,101,32,956,101,2014-08-02T15:05:00,6,20900807,187430
OK,86,37,956,86,2014-08-02T15:10:00,6,20901256,187430
OK,77,42,956,77,2014-08-02T15:15:00,7,20901705,187430
OK,118,27,956,118,2014-08-02T15:20:00,6,20902154,187430
OK,119,27,956,119,2014-08-02T15:25:00,6,20902603,187430
OK,95,34,956,95,2014-08-02T15:30:00,10,20903052,187430
OK,86,37,956,86,2014-08-02T15:35:00,8,20903501,187430
OK,114,28,956,114,2014-08-02T15:40:00,4,20903950,187430
OK,120,27,956,120,2014-08-02T15:45:00,4,20904399,187430
OK,104,31,956,104,2014-08-02T15:50:00,3,20904848,187430
OK,129,25,956,129,2014-08-02T15:55:00,2,20905297,187430
OK,125,25,956,125,2014-08-02T16:00:00,3,20905746,187430
OK,102,31,956,102,2014-08-02T16:05:00,4,20906195,187430
OK,106,30,956,106,2014-08-02T16:10:00,7,20906644,187430
OK,115,28,956,115,2014-08-02T16:15:00,6,20907093,187430
OK,92,35,956,92,2014-08-02T16:20:00,3,20907542,187430
OK,79,41,956,79,2014-08-02T16:25:00,1,20907991,187430
OK,96,33,956,96,2014-08-02T16:30:00,1,20908440,187430
OK,89,36,956,89,2014-08-02T16:35:00,6,20908889,187430
OK,90,36,956,90,2014-08-02T16:40:00,6,20909338,187430
OK,97,33,956,97,2014-08-02T16:45:00,1,20909787,187430
OK,97,33,956,97,2014-08-02T16:50:00,0,20910236,187430
OK,103,31,956,103,2014-08-02T16:55:00,2,20910685,187430
OK,82,39,956,82,2014-08-02T17:00:00,6,20911134,187430
OK,78,41,956,78,2014-08-02T17:05:00,5,20911583,187430
OK,82,39,956,82,2014-08-02T17:10:00,1,20912032,187430
OK,81,40,956,81,2014-08-02T17:15:00,1,20912481,187430
OK,81,40,956,81,2014-08-02T17:20:00,1,20912930,187430
OK,92,35,956,92,2014-08-02T17:25:00,1,20913379,187430
OK,92,35,956,92,2014-08-02T17:30:00,1,20913828,187430
OK,92,35,956,92,2014-08-02T17:35:00,0,20914277,187430
OK,129,25,956,129,2014-08-02T17:40:00,1,20914726,187430
OK,115,28,956,115,2014-08-02T17:45:00,2,20915175,187430
OK,101,32,956,101,2014-08-02T17:50:00,1,20915624,187430
OK,125,25,956,125,2014-08-02T17:55:00,1,20916073,187430
OK,83,39,956,83,2014-08-02T18:00:00,3,20916522,187430
OK,77,42,956,77,2014-08-02T18:05:00,3,20916971,187430
OK,115,28,956,115,2014-08-02T18:10:00,3,20917420,187430
OK,116,27,956,116,2014-08-02T18:15:00,2,20917869,187430
OK,243,13,956,243,2014-08-02T18:20:00,1,20918318,187430
OK,116,27,956,116,2014-08-02T18:25:00,0,20918767,187430
OK,107,30,956,107,2014-08-02T18:30:00,1,20919216,187430
OK,102,31,956,102,2014-08-02T18:35:00,3,20919665,187430
OK,102,31,956,102,2014-08-02T18:40:00,3,20920114,187430
OK,128,25,956,128,2014-08-02T18:45:00,3,20920563,187430
OK,111,29,956,111,2014-08-02T18:50:00,5,20921012,187430
OK,110,29,956,110,2014-08-02T18:55:00,4,20921461,187430
OK,112,28,956,112,2014-08-02T19:00:00,1,20921910,187430
OK,104,31,956,104,2014-08-02T19:05:00,2,20922359,187430
OK,100,32,956,100,2014-08-02T19:10:00,4,20922808,187430
OK,97,33,956,97,2014-08-02T19:15:00,4,20923257,187430
OK,119,27,956,119,2014-08-02T19:20:00,1,20923706,187430
OK,119,27,956,119,2014-08-02T19:25:00,0,20924155,187430
OK,71,45,956,71,2014-08-02T19:30:00,1,20924604,187430
OK,62,52,956,62,2014-08-02T19:35:00,2,20925053,187430
OK,102,31,956,102,2014-08-02T19:40:00,2,20925502,187430
OK,116,27,956,116,2014-08-02T19:45:00,2,20925951,187430
OK,83,39,956,83,2014-08-02T19:50:00,1,20926400,187430
OK,83,39,956,83,2014-08-02T19:55:00,0,20926849,187430
OK,83,39,956,83,2014-08-02T20:00:00,0,20927298,187430
OK,138,23,956,138,2014-08-02T20:05:00,2,20927747,187430
OK,110,29,956,110,2014-08-02T20:10:00,3,20928196,187430
OK,110,29,956,110,2014-08-02T20:15:00,1,20928645,187430
OK,101,32,956,101,2014-08-02T20:20:00,2,20929094,187430
OK,101,32,956,101,2014-08-02T20:25:00,2,20929543,187430
OK,93,34,956,93,2014-08-02T20:30:00,2,20929992,187430
OK,91,35,956,91,2014-08-02T20:35:00,3,20930441,187430
OK,91,35,956,91,2014-08-02T20:40:00,1,20930890,187430
OK,91,35,956,91,2014-08-02T20:45:00,0,20931339,187430
OK,84,38,956,84,2014-08-02T20:50:00,2,20931788,187430
OK,84,38,956,84,2014-08-02T20:55:00,2,20932237,187430
OK,83,39,956,83,2014-08-02T21:00:00,0,20932686,187430
OK,83,39,956,83,2014-08-02T21:05:00,0,20933135,187430
OK,83,39,956,83,2014-08-02T21:10:00,0,20933584,187430
OK,117,27,956,117,2014-08-02T21:15:00,2,20934033,187430
OK,117,27,956,117,2014-08-02T21:20:00,2,20934482,187430
OK,117,27,956,117,2014-08-02T21:25:00,0,20934931,187430
OK,117,27,956,117,2014-08-02T21:30:00,0,20935380,187430
OK,117,27,956,117,2014-08-02T21:35:00,0,20935829,187430
OK,117,27,956,117,2014-08-02T21:40:00,0,20936278,187430
OK,117,27,956,117,2014-08-02T21:45:00,0,20936727,187430
OK,117,27,956,117,2014-08-02T21:50:00,0,20937176,187430
OK,117,27,956,117,2014-08-02T21:55:00,0,20937625,187430
OK,117,27,956,117,2014-08-02T22:00:00,0,20938074,187430
OK,117,27,956,117,2014-08-02T22:05:00,0,20938523,187430
OK,117,27,956,117,2014-08-02T22:10:00,0,20938972,187430
OK,117,27,956,117,2014-08-02T22:15:00,0,20939421,187430
OK,129,25,956,129,2014-08-02T22:20:00,1,20939870,187430
OK,123,26,956,123,2014-08-02T22:25:00,2,20940319,187430
OK,117,27,956,117,2014-08-02T22:30:00,1,20940768,187430
OK,81,40,956,81,2014-08-02T22:35:00,2,20941217,187430
OK,81,40,956,81,2014-08-02T22:40:00,2,20941666,187430
OK,81,40,956,81,2014-08-02T22:45:00,0,20942115,187430
OK,77,42,956,77,2014-08-02T22:50:00,1,20942564,187430
OK,81,40,956,81,2014-08-02T22:55:00,2,20943013,187430
OK,86,37,956,86,2014-08-02T23:00:00,1,20943462,187430
OK,111,29,956,111,2014-08-02T23:10:00,1,20943911,187430
OK,82,39,956,82,2014-08-02T23:15:00,2,20944360,187430
OK,82,39,956,82,2014-08-02T23:20:00,0,20944809,187430
OK,82,39,956,82,2014-08-02T23:25:00,0,20945258,187430
OK,82,39,956,82,2014-08-02T23:30:00,0,20945707,187430
OK,97,33,956,97,2014-08-02T23:35:00,1,20946156,187430
OK,97,33,956,97,2014-08-02T23:40:00,1,20946605,187430
OK,97,33,956,97,2014-08-02T23:45:00,0,20947054,187430
OK,97,33,956,97,2014-08-02T23:50:00,0,20947503,187430
OK,97,33,956,97,2014-08-02T23:55:00,0,20947952,187430
OK,82,39,956,82,2014-08-03T00:00:00,2,20948401,187430
OK,81,40,956,81,2014-08-03T00:05:00,1,20948850,187430
OK,81,40,956,81,2014-08-03T00:10:00,0,20949298,187430
OK,81,40,956,81,2014-08-03T00:15:00,0,20949747,187430
OK,106,30,956,106,2014-08-03T00:20:00,1,20950196,187430
OK,106,30,956,106,2014-08-03T00:25:00,0,20950645,187430
OK,106,30,956,106,2014-08-03T00:30:00,0,20951094,187430
OK,106,30,956,106,2014-08-03T00:35:00,0,20951543,187430
OK,124,26,956,124,2014-08-03T00:40:00,1,20951992,187430
OK,124,26,956,124,2014-08-03T00:45:00,1,20952441,187430
OK,124,26,956,124,2014-08-03T00:50:00,0,20952890,187430
OK,124,26,956,124,2014-08-03T00:55:00,0,20953339,187430
OK,79,41,956,79,2014-08-03T01:00:00,1,20953788,187430
OK,79,41,956,79,2014-08-03T01:05:00,0,20954237,187430
OK,79,41,956,79,2014-08-03T01:10:00,0,20954686,187430
OK,79,41,956,79,2014-08-03T01:15:00,0,20955135,187430
OK,87,37,956,87,2014-08-03T01:20:00,1,20955584,187430
OK,87,37,956,87,2014-08-03T01:25:00,0,20956033,187430
OK,87,37,956,87,2014-08-03T01:30:00,0,20956482,187430
OK,87,37,956,87,2014-08-03T01:35:00,0,20956931,187430
OK,87,37,956,87,2014-08-03T01:40:00,0,20957380,187430
OK,87,37,956,87,2014-08-03T01:45:00,0,20957829,187430